Tacoma Narrows, WA
on Saturday, January 26, 2013

Saturday
Previous Day Next Day
Daily Summary
 ActualAverageRecord
Temperature
Mean Temperature °F °F  
Max Temperature 46°F 45°F 57°F (2003)
Min Temperature 39°F 37°F 12°F (1997)
Degree Days
Heating Degree Days 22    
Moisture
Dew Point 37°F   
Average Humidity 81    
Maximum Humidity 87    
Minimum Humidity 68    
Precipitation
Precipitation 0.05 in in in ()
Wind
Wind Speed 7 mph   
Max Wind Speed 16 mph   
Max Gust Speed 23 mph   
Visibility 10 miles   
Events Rain   
Averages and records for this station are not official NWS values.
Key: T is trace of precipitation, MM is missing value
Source: NWS Daily Summary
Seasonal Weather Averages
Time(PST)TemperatureDew PointHumidity Pressure Visibility Wind DirectionWind SpeedGust SpeedPrecipitationEvents Conditions
12:38 AM 42.8°F 35.6°F 76% 29.92 in 10.0 miles SSW 4.6 mph - N/A   Mostly Cloudy
12:50 AM 41.0°F 35.6°F 81% 29.91 in 10.0 miles SSE 3.5 mph - N/A   Scattered Clouds
12:53 AM 42.1°F 37.0°F 82% 29.92 in 10.0 miles SSE 3.5 mph - N/A   Partly Cloudy
1:53 AM 41.0°F 37.0°F 86% 29.91 in 10.0 miles SSE 3.5 mph - N/A   Overcast
2:53 AM 41.0°F 37.0°F 86% 29.91 in 10.0 miles SSE 4.6 mph - N/A   Overcast
3:36 AM 39.2°F 35.6°F 87% 29.89 in 10.0 miles South 3.5 mph - 0.01 in Rain Light Rain
3:53 AM 41.0°F 36.0°F 82% 29.89 in 10.0 miles SSE 3.5 mph - 0.01 in Rain Light Rain
4:01 AM 39.2°F 35.6°F 87% 29.88 in 10.0 miles SSE 4.6 mph - 0.01 in Rain Light Rain
4:45 AM 39.2°F 35.6°F 87% 29.88 in 10.0 miles South 6.9 mph - 0.02 in   Overcast
4:53 AM 39.9°F 36.0°F 86% 29.89 in 10.0 miles South 9.2 mph - 0.02 in   Overcast
5:53 AM 41.0°F 37.0°F 86% 29.89 in 10.0 miles South 9.2 mph - N/A   Overcast
6:53 AM 41.0°F 37.0°F 86% 29.89 in 10.0 miles South 10.4 mph - N/A   Overcast
7:24 AM 42.8°F 37.4°F 81% 29.89 in 10.0 miles South 11.5 mph - 0.01 in Rain Light Rain
7:53 AM 42.1°F 37.0°F 82% 29.90 in 10.0 miles South 16.1 mph 20.7 mph 0.01 in Rain Light Rain
8:53 AM 43.0°F 37.0°F 80% 29.92 in 10.0 miles South 11.5 mph 20.7 mph 0.01 in   Mostly Cloudy
9:53 AM 43.0°F 37.0°F 80% 29.94 in 10.0 miles South 16.1 mph 23.0 mph N/A   Mostly Cloudy
10:53 AM 44.1°F 37.0°F 76% 29.95 in 10.0 miles South 16.1 mph 21.9 mph N/A   Mostly Cloudy
11:53 AM 46.0°F 37.0°F 71% 29.95 in 10.0 miles South 13.8 mph 23.0 mph N/A   Mostly Cloudy
12:53 PM 46.9°F 37.9°F 71% 29.94 in 10.0 miles SSW 11.5 mph 20.7 mph N/A   Overcast
1:53 PM 46.0°F 37.0°F 71% 29.94 in 10.0 miles South 10.4 mph - N/A   Scattered Clouds
2:53 PM 46.0°F 36.0°F 68% 29.94 in 10.0 miles South 10.4 mph - N/A   Scattered Clouds
3:53 PM 44.1°F 35.1°F 71% 29.95 in 10.0 miles South 13.8 mph - N/A   Scattered Clouds
4:00 PM 44.6°F 35.6°F 71% 29.94 in 10.0 miles South 10.4 mph 18.4 mph N/A   Overcast
4:53 PM 43.0°F 37.0°F 80% 29.96 in 10.0 miles South 11.5 mph - N/A   Overcast
5:53 PM 42.1°F 37.0°F 82% 29.98 in 10.0 miles South 9.2 mph - N/A   Overcast
6:53 PM 42.1°F 37.9°F 85% 29.99 in 10.0 miles South 6.9 mph - N/A   Mostly Cloudy
7:00 PM 42.8°F 37.4°F 81% 29.98 in 10.0 miles SSW 6.9 mph - N/A   Overcast
7:19 PM 41.0°F 37.4°F 87% 29.99 in 10.0 miles South 8.1 mph - N/A   Overcast
7:37 PM 41.0°F 37.4°F 87% 29.99 in 10.0 miles South 9.2 mph - N/A   Overcast
7:48 PM 41.0°F 37.4°F 87% 30.00 in 10.0 miles South 9.2 mph - N/A   Mostly Cloudy
7:53 PM 41.0°F 37.0°F 86% 30.01 in 10.0 miles South 8.1 mph - N/A   Mostly Cloudy
8:08 PM 41.0°F 35.6°F 81% 30.00 in 10.0 miles South 9.2 mph - N/A   Scattered Clouds
8:18 PM 41.0°F 35.6°F 81% 30.00 in 10.0 miles SSW 8.1 mph - N/A   Mostly Cloudy
8:53 PM 41.0°F 37.0°F 86% 30.02 in 10.0 miles South 6.9 mph - N/A   Overcast
9:53 PM 41.0°F 37.0°F 86% 30.02 in 10.0 miles South 9.2 mph - N/A   Overcast
10:53 PM 41.0°F 37.0°F 86% 30.04 in 10.0 miles SSW 8.1 mph - N/A   Overcast
11:53 PM 41.0°F 37.0°F 86% 30.04 in 10.0 miles South 8.1 mph - N/A   Overcast
Moon Phase
Jan. 26 Jan. 26 Feb. 03 Feb. 10 Feb. 17
Sunrise:07:42 AM (PST) Moon Rise:05:07 PM (PST)1/26
Sunset:05:03 PM (PST) Moon Set:07:01 AM (PST)1/26

Copyright © 2014 The Weather Underground, Inc.